Flag for Philippines Weather past 2 weeks in Makati, Philippines

Now
84 °F

Scattered clouds.


Feels Like: 88 °F
Forecast: 73 / 89 °F
Wind: 9 mph from Southeast

Location: National Airport

Current Time: Mar 6, 2015 at 7:09:14 PM

Latest Report: Mar 6, 2015 at 6:00 PM


Visibility: N/A

Pressure: 29.86 "Hg

Humidity: 62%

Dew point: 70 °F

Location of MakatiLocation

Historic Weather in Makati — Graph

°F

Makati temperature yesterday

Maximum temperature yesterday: 90 °F (at 2:00 PM)
Minimum temperature yesterday: 72 °F (at 6:00 AM)
Average temperature yesterday: 81 °F

Past Weeks' High & Low Weather Summary

 TemperatureHumidityPressure
High91 °F (Mar 1, 3:00 PM)100% (Feb 20, 1:00 PM)30.01 "Hg (Feb 20, 1:00 PM)
Low68 °F (Feb 20, 1:00 PM)36% (Mar 2, 12:00 PM)29.80 "Hg (Mar 2, 3:00 PM)
Average81 °F65%29.93 "Hg
* Reported Feb 19 6:00 PM — Mar 6 6:00 PM, Makati, Weather by CustomWeather, © 2015

Note: Actual official high and low records may vary slightly from our data, if they occured in-between our weather recording intervals... More about our weather records

Advertising

Makati weather history for previous 24 hours

 ConditionsComfort  
Time TempWeatherWind HumidityBarometerVisibility
6:00 PM
Fri, Mar 6
84 °FScattered clouds.9 mph62%29.86 "HgN/A
5:00 PM86 °FScattered clouds.12 mph55%29.86 "HgN/A
4:00 PM90 °FScattered clouds.12 mph46%29.83 "HgN/A
3:00 PM90 °FPassing clouds.9 mph43%29.86 "HgN/A
2:00 PM86 °FScattered clouds.5 mph59%29.89 "HgN/A
1:00 PM86 °FScattered clouds.8 mph55%29.92 "HgN/A
12:00 PM84 °FScattered clouds.8 mph62%29.95 "HgN/A
11:00 AM84 °FScattered clouds.9 mph62%29.98 "HgN/A
10:00 AM81 °FScattered clouds.6 mph70%30.01 "HgN/A
9:00 AM79 °FScattered clouds.6 mph74%30.01 "HgN/A
8:00 AM79 °FSprinkles. More clouds than sun.2 mph74%30.01 "HgN/A
7:00 AM77 °FBroken clouds.5 mph74%29.98 "HgN/A
6:00 AM77 °FPassing clouds.5 mph83%29.95 "HgN/A
5:00 AM77 °FPassing clouds.1 mph79%29.92 "HgN/A
4:00 AM79 °FPassing clouds.7 mph74%29.92 "HgN/A
3:00 AM79 °FPassing clouds.7 mph79%29.92 "HgN/A
2:00 AM79 °FPassing clouds.6 mph79%29.92 "HgN/A
1:00 AM79 °FPassing clouds.5 mph79%29.95 "HgN/A
12:00 AM79 °FPassing clouds.6 mph79%29.95 "HgN/A
11:00 PM
Thu, Mar 5
77 °FPassing clouds.7 mph89%29.98 "HgN/A
10:00 PM79 °FPassing clouds.8 mph79%29.98 "HgN/A
9:00 PM79 °FPassing clouds.7 mph79%29.95 "HgN/A
8:00 PM81 °FPassing clouds.7 mph70%29.95 "HgN/A
7:00 PM81 °FPartly cloudy.7 mph66%29.92 "HgN/A
Weather by CustomWeather, © 2015

See weather overviewHow to use our weather pages